Skip Page Navigation
NASA JPL Caltech
NASA Logo - Jet Propulsion Laboratory + View the NASA Portal
+ Center for Near-Earth Object Studies
JPL Home Earth Solar System Stars & Galaxies Technology
JPL Solar System Dynamics
BODIES ORBITS EPHEMERIDES TOOLS PHYSICAL DATA DISCOVERY FAQ SITE MAP
JPL Small-Body Database Browser
Search: [ help ]  
212535 (2006 RY89)
Classification: Main-belt Asteroid          SPK-ID: 2212535
Ephemeris | Orbit Diagram | Orbital Elements | Mission Design | Physical Parameters | Discovery Circumstances ]

[ show orbit diagram ]
Orbital Elements at Epoch 2459000.5 (2020-May-31.0) TDB
Reference: JPL 21 (heliocentric ecliptic J2000)
 Element Value Uncertainty (1-sigma)   Units 
e .1176214052740046 3.5158e-08  
a 2.607172297748599 1.9107e-08 au
q 2.300513028295953 9.2068e-08 au
i 2.907734608175048 5.1415e-06 deg
node 350.3133139007477 7.593e-05 deg
peri 272.8944041037835 7.96e-05 deg
M 187.4534633745476 2.6017e-05 deg
tp 2459737.481815355774
(2022-Jun-06.98181536)
0.00011516 TDB
period 1537.634186793304
4.21
1.6903e-05
4.628e-08
d
yr
n .2341259078993103 2.5737e-09 deg/d
Q 2.913831567201245 2.1354e-08 au
  Orbit Determination Parameters
   # obs. used (total)      366  
   data-arc span      8709 days (23.84 yr)  
   first obs. used      1996-02-14  
   last obs. used      2019-12-19  
   planetary ephem.      DE431  
   SB-pert. ephem.      SB431-N16  
   condition code      0  
   norm. resid. RMS      .53507  
   source      ORB  
   producer      Otto Matic  
   solution date      2020-Nov-12 04:00:22  

Additional Information
 Earth MOID = 1.28717 au 
 Jupiter MOID = 2.15748 au 
 T_jup = 3.400 
[ show covariance matrix ]

Ephemeris | Orbit Diagram | Orbital Elements | Mission Design | Physical Parameters | Discovery Circumstances ]

Physical Parameter Table
Parameter Symbol Value Units Sigma Reference Notes
absolute magnitude H 16.3   n/a MPO454526  

212535 (2006 RY89)          Discovered 2006-Sep-15 by Spacewatch at Kitt Peak
Reference: 20090409/Numbers.arcLast Updated: 2009-04-10

Alternate Designations
 2006 RY89 = 2004 BB149 
Ephemeris | Orbit Diagram | Orbital Elements | Mission Design | Physical Parameters | Discovery Circumstances ]
ABOUT SSD CREDITS/AWARDS PRIVACY/COPYRIGHT GLOSSARY LINKS
FirstGov 2020-Nov-27 12:43 UT
(server date/time)  
NASA Home Page
Site Manager:   Ryan S. Park
Webmaster  Alan B. Chamberlin